Wind_Speed
14 14 13 13 14 13 11 12 12 12 12 12 12 11 10 9 9 9 9 9 8 8 8 7 7 7 6 6 6 6 7 7 6 6 6 6 5 5 5 4 4 4 4 5 5 5 5 5 5
15 14 13 14 14 12 11 12 12 12 11 11 12 12 11 10 10 9 9 9 9 8 7 7 6 6 6 5 5 5 5 5 5 5 5 5 4 4 4 4 3 3 4 4 4 5 5 5 6
14 14 13 14 13 12 11 11 11 11 11 12 12 12 12 11 10 9 9 9 9 8 7 6 6 6 5 5 5 5 5 5 4 4 4 4 3 3 3 3 3 4 4 5 4 5 6 6 6
13 12 13 13 12 12 11 11 11 12 11 12 12 13 12 11 11 11 10 9 9 8 7 6 6 5 5 5 5 5 5 5 4 4 3 3 2 3 3 3 4 4 4 5 4 5 5 6 7
13 13 14 11 11 12 12 11 11 12 11 12 12 12 12 11 11 11 10 10 10 9 8 7 6 5 5 5 5 5 5 4 4 3 2 2 1 2 3 3 3 4 4 5 5 5 5 6 7
13 14 12 10 11 11 12 12 11 11 11 10 10 11 11 11 11 10 11 10 10 9 8 7 6 5 4 4 4 4 4 3 3 2 2 1 1 1 2 3 3 3 4 5 4 4 5 6 7
12 12 11 10 11 11 12 12 11 10 10 10 10 10 10 10 10 10 10 10 9 8 7 7 6 6 5 4 4 4 3 3 2 1 1 1 1 1 2 3 4 4 4 5 5 4 5 6 7
11 12 10 10 11 11 11 11 11 11 11 10 10 10 10 10 10 9 9 9 9 8 7 6 6 6 5 4 4 3 3 2 1 1 0 0 0 1 3 4 5 4 5 5 5 4 5 6 7
11 12 9 10 11 11 10 11 11 11 10 11 10 10 9 9 9 8 8 7 7 7 7 6 6 5 5 4 3 3 2 2 1 0 0 1 1 2 3 4 5 5 5 5 5 5 5 6 7
11 11 10 10 10 10 10 10 10 10 9 9 9 9 8 8 8 7 7 6 7 7 6 6 5 5 5 5 4 3 2 2 1 1 1 2 2 3 3 4 5 5 5 5 6 6 5 6 7
11 11 11 11 10 10 10 9 9 8 8 8 8 7 7 7 7 7 7 6 6 6 5 5 5 5 5 5 5 4 3 2 1 1 2 2 3 3 3 4 5 5 5 6 6 6 6 6 7
10 10 10 10 9 9 9 9 8 7 7 7 7 6 6 6 6 6 6 6 6 6 5 5 6 6 5 5 5 5 4 3 2 2 3 3 2 3 4 4 5 6 7 7 7 6 6 7 7
8 8 9 9 9 9 9 9 8 7 7 6 6 6 5 6 6 6 5 5 5 5 5 6 6 6 6 6 6 6 5 4 3 3 3 3 3 4 4 5 5 6 7 7 7 7 8 8 8
6 6 7 7 8 8 8 8 7 6 6 6 6 6 5 5 5 6 6 6 6 6 6 6 6 6 6 6 6 6 6 5 5 5 4 4 3 4 5 5 5 6 7 6 7 7 8 9 9
5 5 5 6 6 7 7 7 7 6 5 6 6 6 6 6 6 6 6 6 7 7 7 7 7 7 7 6 6 7 6 5 5 5 5 4 4 5 5 5 5 6 7 7 7 8 9 10 11
4 5 5 5 5 6 7 7 6 6 6 6 6 6 6 6 7 7 7 7 7 7 7 7 8 8 8 7 7 7 7 6 6 6 5 5 5 6 6 6 7 7 7 8 8 9 10 10 11
3 4 4 4 4 5 5 6 6 6 6 7 7 7 7 7 7 7 7 7 8 7 7 8 9 9 9 9 9 8 7 7 6 6 6 5 6 6 6 7 8 8 8 9 9 10 10 11 11
2 3 4 4 5 5 5 5 6 6 7 7 7 8 7 8 7 7 7 8 8 8 8 8 9 10 10 9 9 9 9 8 7 6 6 6 6 6 7 7 8 8 9 10 10 11 11 11 12
3 3 4 5 5 5 5 6 6 6 7 8 8 8 8 8 8 8 8 8 8 8 8 9 10 10 10 10 10 9 9 8 7 7 7 7 8 8 8 8 8 8 9 10 11 12 12 12 12
3 3 5 6 5 6 6 6 7 7 8 8 8 8 8 8 9 9 9 9 8 8 9 9 10 11 11 11 11 10 10 8 8 9 9 9 9 9 9 9 8 9 9 10 11 12 13 13 13
5 5 6 6 6 6 7 7 7 8 7 8 8 8 9 9 9 9 9 9 9 9 10 11 11 11 11 12 12 11 11 9 9 9 10 10 10 10 9 9 9 10 10 11 11 12 14 13 14
7 7 7 6 6 7 7 7 8 8 9 9 9 9 9 9 9 9 9 9 9 10 11 11 11 11 12 12 12 12 11 10 10 10 10 10 10 10 10 10 11 11 11 11 12 12 13 13 14
8 8 8 7 7 7 7 6 9 9 10 10 10 10 10 9 9 9 9 9 10 11 11 11 12 12 12 12 13 13 12 11 12 11 11 10 10 10 10 11 12 12 12 12 13 13 14 15 15
9 9 9 8 6 7 8 7 9 11 11 11 11 11 10 10 10 10 10 10 11 11 12 12 13 13 13 13 13 13 13 12 12 12 11 12 11 11 11 12 13 13 13 13 13 13 14 15 16
10 8 8 8 7 9 10 9 10 11 12 12 11 11 11 11 11 11 11 11 12 12 13 13 13 14 14 14 14 14 14 13 13 12 12 13 13 13 13 13 13 13 13 13 14 14 14 15 15
10 8 8 8 9 10 12 11 12 12 12 12 11 11 11 11 12 12 11 12 13 13 14 14 14 14 14 15 15 15 15 14 13 13 13 14 14 14 14 13 13 13 14 14 15 15 15 15 15
11 10 9 10 10 11 12 13 13 12 12 11 11 11 12 12 12 12 13 13 13 14 14 15 15 15 15 15 15 16 15 14 14 14 14 14 15 15 15 15 14 14 14 15 15 15 15 15 16
12 11 10 10 11 11 13 13 13 12 12 12 12 12 13 13 12 13 13 13 13 14 14 15 15 16 16 16 16 16 15 15 15 14 15 15 15 15 15 15 16 16 16 16 16 16 16 17 16
15 13 13 12 12 11 11 12 13 13 12 12 13 13 13 13 13 13 13 14 14 14 15 15 16 17 17 17 17 17 16 15 15 15 16 16 16 16 16 17 17 17 17 17 18 19 18 18 18
16 15 14 14 14 13 12 13 13 13 13 12 13 13 13 14 14 14 14 15 15 15 16 16 17 17 17 17 17 17 17 16 16 17 17 17 16 17 18 18 18 18 19 19 19 20 19 19 18
Wind_Direction
79 78 79 81 80 77 82 84 85 82 81 79 78 80 80 79 80 85 87 88 90 91 91 95 99 100 98 98 99 98 103 105 107 105 112 119 130 141 157 168 174 179 181 180 183 187 192 191 194
78 79 79 78 78 79 81 84 85 83 82 81 78 75 74 73 72 79 87 86 87 88 87 92 101 101 101 101 101 98 102 109 107 106 113 122 133 147 165 175 186 188 187 186 192 196 196 196 201
77 76 75 74 78 80 81 84 84 84 83 81 79 76 73 72 71 77 84 85 85 85 85 88 94 100 102 104 108 107 105 107 104 107 105 121 142 159 175 184 195 200 194 196 205 210 208 201 204
76 74 71 74 76 79 80 84 85 84 84 81 77 75 74 74 72 73 77 79 81 80 80 81 83 92 96 98 102 111 110 104 99 99 99 117 145 166 188 192 192 195 200 204 202 208 207 206 209
77 74 71 74 74 77 79 81 82 82 81 79 76 74 73 73 72 71 74 76 75 73 72 71 72 78 85 86 93 101 106 102 98 97 104 111 147 182 193 193 194 200 198 199 204 203 200 207 208
77 76 77 76 75 78 79 79 79 80 79 76 75 75 73 73 72 72 73 74 73 71 71 68 67 71 79 85 91 97 97 101 104 100 108 116 108 176 192 196 193 196 203 207 207 207 210 209 206
80 83 81 79 79 78 76 75 74 78 76 73 75 76 74 74 75 74 72 70 68 66 68 67 67 69 68 69 71 82 83 79 92 114 143 135 181 204 215 219 216 209 208 216 211 211 218 209 204
83 81 78 81 83 78 73 71 70 77 74 71 73 75 74 73 75 75 72 69 66 64 64 62 60 62 61 59 57 60 58 53 53 93 183 206 219 239 241 238 226 220 226 229 223 220 225 214 208
83 79 81 84 83 77 70 68 70 73 72 69 66 65 69 68 70 71 69 66 61 58 55 53 53 50 42 37 34 29 22 20 12 254 261 253 257 250 253 252 240 239 245 245 240 237 234 223 218
81 83 82 82 83 78 73 69 68 68 67 63 60 60 61 62 63 62 60 55 50 46 45 43 43 38 27 20 10 359 356 13 12 344 285 263 264 262 261 262 255 248 248 244 241 245 243 233 226
82 81 77 73 73 72 70 70 66 65 62 60 56 56 55 55 58 56 51 45 39 36 34 31 33 27 21 16 6 357 345 338 340 331 327 302 277 275 265 265 265 253 251 251 247 243 241 234 234
83 80 73 66 61 60 59 64 63 61 57 57 54 47 50 48 45 44 39 34 33 30 25 17 13 10 10 7 0 354 339 312 305 313 313 313 305 292 278 269 262 260 259 256 251 246 242 238 242
80 77 71 61 55 55 55 53 51 50 49 54 47 35 33 35 33 30 26 23 18 11 6 4 2 1 360 359 358 353 343 324 308 302 301 301 301 291 280 273 267 266 264 260 256 246 242 244 246
78 71 63 59 56 51 49 46 42 42 36 36 35 30 25 24 21 14 8 5 357 354 355 353 352 351 348 348 353 359 352 341 324 311 309 305 298 290 286 279 275 272 269 267 258 250 247 251 251
72 60 53 49 51 45 40 36 29 25 23 26 25 19 17 14 10 5 1 0 357 351 351 353 350 346 342 342 344 346 343 336 334 330 328 316 306 296 290 283 283 280 271 266 262 256 257 257 255
60 48 29 24 43 42 35 22 17 15 10 8 6 5 1 0 1 359 354 351 350 346 344 344 343 338 336 336 340 339 332 324 323 327 324 324 316 303 291 281 284 281 274 271 268 264 263 264 262
41 21 1 0 15 23 27 17 7 5 1 359 355 351 349 346 347 351 351 348 342 338 337 340 337 334 335 338 340 338 333 324 319 327 327 318 312 309 295 285 283 279 274 273 272 269 266 265 265
281 317 330 339 341 354 2 355 353 351 347 346 343 339 333 334 339 343 341 342 343 343 339 334 330 330 333 337 337 334 331 329 316 314 319 312 307 308 304 299 294 282 275 274 272 270 267 266 265
259 304 317 325 328 337 341 334 336 336 333 338 337 333 330 327 326 325 327 330 332 336 340 340 335 336 338 338 336 335 331 328 325 318 311 313 313 308 304 299 293 287 280 278 274 269 269 269 266
272 300 310 317 328 331 332 326 328 331 332 334 336 333 328 324 319 320 323 324 327 328 333 332 334 336 338 337 337 334 331 327 325 325 318 310 311 309 307 302 298 291 286 286 282 275 271 269 268
278 286 295 307 320 327 330 328 325 327 330 330 331 331 327 325 320 317 319 319 325 328 329 326 328 330 331 332 334 332 329 321 317 317 316 315 310 309 308 304 300 297 291 289 286 280 274 272 271
270 281 292 303 316 322 329 323 322 326 325 326 325 327 329 328 324 323 318 315 317 323 325 325 325 327 327 326 328 328 327 323 320 317 314 314 313 311 310 306 301 298 295 292 289 285 280 275 271
257 277 288 296 307 315 322 320 312 319 319 321 322 323 325 327 324 323 321 316 317 320 321 323 325 325 327 325 323 325 323 320 321 317 314 313 312 311 309 308 307 303 299 295 292 289 284 279 275
263 280 295 302 306 300 309 315 309 310 312 314 316 318 318 319 319 319 320 319 320 321 319 318 320 322 323 324 322 321 321 320 318 316 312 311 308 306 306 307 309 308 305 301 297 294 289 284 280
266 278 288 294 290 288 299 305 303 304 305 307 310 311 313 314 314 316 317 316 316 316 316 318 319 320 319 323 323 321 319 319 316 314 313 310 306 304 305 306 307 307 307 307 304 301 297 291 284
264 261 262 267 271 283 294 296 300 302 303 306 305 308 311 313 313 313 311 312 313 313 311 313 317 319 319 320 323 322 320 317 315 315 315 313 310 305 305 303 303 306 306 305 304 302 301 297 290
259 262 261 266 272 279 286 292 295 299 300 304 305 306 308 306 308 307 307 308 309 311 311 312 312 314 317 319 321 321 320 317 314 313 313 313 311 308 305 305 304 303 304 303 302 301 299 298 295
257 264 266 263 269 275 287 295 295 298 299 299 302 304 304 307 308 307 306 306 307 308 309 311 311 310 311 315 316 317 315 316 314 312 310 309 307 306 305 307 307 304 303 304 302 300 297 298 296
265 267 266 265 265 270 280 286 287 293 297 299 299 301 301 304 305 305 303 304 305 305 306 308 308 308 309 311 312 312 312 311 310 309 310 308 304 304 303 303 304 303 302 302 301 299 297 296 295
259 262 265 269 272 272 274 282 285 288 295 298 299 300 301 300 302 301 302 304 303 303 305 306 306 306 307 308 308 308 308 307 305 307 308 308 305 302 302 301 299 298 297 297 299 299 297 294 292
Height
5899 5898 5898 5899 5899 5900 5898 5897 5896 5895 5894 5893 5892 5891 5890 5890 5890 5892 5888 5886 5886 5885 5884 5884 5884 5884 5884 5883 5883 5883 5882 5882 5881 5881 5882 5882 5882 5882 5883 5883 5884 5884 5884 5885 5885 5886 5887 5888 5888
5901 5900 5901 5901 5901 5901 5900 5899 5898 5896 5896 5894 5893 5892 5891 5891 5890 5889 5888 5887 5887 5886 5886 5885 5885 5885 5885 5884 5884 5883 5883 5882 5882 5882 5882 5882 5882 5882 5883 5883 5883 5884 5884 5885 5885 5886 5886 5887 5887
5902 5902 5903 5903 5902 5902 5901 5900 5899 5898 5897 5896 5895 5894 5893 5892 5891 5890 5889 5888 5887 5887 5886 5886 5886 5886 5885 5885 5884 5884 5883 5883 5883 5882 5882 5882 5882 5882 5882 5882 5883 5883 5883 5884 5884 5885 5885 5886 5887
5904 5905 5905 5905 5904 5903 5902 5901 5900 5899 5898 5897 5896 5895 5894 5893 5892 5891 5889 5889 5888 5888 5887 5887 5886 5886 5886 5885 5885 5884 5883 5883 5883 5883 5882 5882 5882 5882 5882 5882 5882 5882 5882 5883 5883 5884 5884 5885 5885
5906 5906 5907 5907 5905 5905 5903 5902 5901 5900 5899 5898 5897 5896 5895 5894 5893 5892 5891 5890 5890 5889 5888 5888 5887 5887 5887 5886 5886 5885 5884 5884 5883 5883 5883 5882 5882 5881 5881 5881 5882 5882 5881 5882 5882 5883 5883 5884 5884
5908 5908 5910 5908 5907 5906 5905 5903 5902 5901 5900 5899 5898 5897 5897 5896 5894 5893 5892 5892 5891 5890 5889 5889 5888 5888 5887 5887 5886 5885 5885 5884 5884 5883 5883 5882 5882 5881 5881 5881 5881 5881 5881 5881 5881 5882 5882 5883 5883
5910 5911 5910 5910 5909 5908 5907 5905 5904 5902 5902 5901 5900 5899 5898 5896 5896 5895 5894 5893 5892 5891 5890 5890 5889 5888 5888 5887 5887 5886 5885 5884 5883 5883 5882 5882 5881 5881 5881 5880 5880 5880 5881 5880 5881 5881 5881 5882 5882
5912 5913 5912 5911 5910 5909 5908 5907 5905 5904 5903 5903 5901 5900 5899 5898 5897 5896 5895 5894 5893 5892 5892 5890 5890 5889 5888 5888 5887 5886 5885 5884 5883 5882 5882 5881 5881 5880 5880 5879 5879 5879 5879 5879 5880 5880 5880 5881 5882
5914 5916 5914 5913 5912 5911 5909 5908 5907 5906 5905 5904 5903 5902 5901 5900 5898 5897 5896 5895 5894 5893 5892 5891 5890 5889 5888 5888 5887 5886 5885 5883 5882 5881 5881 5880 5880 5880 5879 5879 5878 5878 5878 5879 5879 5879 5879 5880 5881
5916 5917 5916 5914 5913 5912 5911 5910 5909 5908 5907 5906 5904 5903 5902 5901 5900 5898 5897 5896 5895 5894 5893 5892 5891 5890 5888 5887 5886 5885 5884 5883 5882 5881 5880 5880 5879 5879 5879 5878 5878 5878 5878 5878 5878 5878 5878 5879 5880
5918 5918 5917 5916 5914 5913 5912 5911 5910 5909 5908 5907 5906 5904 5903 5902 5901 5900 5898 5897 5896 5895 5894 5893 5891 5890 5889 5887 5886 5884 5883 5882 5881 5881 5880 5879 5879 5878 5878 5877 5877 5877 5877 5877 5877 5877 5877 5878 5878
5920 5919 5918 5917 5916 5915 5914 5913 5912 5910 5909 5908 5906 5905 5904 5903 5902 5901 5899 5898 5897 5896 5895 5893 5892 5890 5889 5887 5886 5884 5883 5882 5881 5880 5880 5879 5878 5877 5877 5876 5876 5876 5876 5876 5876 5876 5876 5877 5877
5921 5920 5919 5918 5917 5916 5915 5914 5913 5911 5910 5908 5907 5906 5905 5903 5902 5901 5900 5899 5898 5896 5895 5894 5892 5891 5889 5887 5886 5884 5882 5881 5880 5879 5879 5878 5877 5876 5876 5876 5875 5875 5875 5875 5874 5875 5875 5875 5876
5922 5921 5921 5920 5919 5918 5916 5915 5914 5912 5911 5909 5908 5907 5905 5904 5903 5902 5900 5899 5898 5897 5895 5894 5892 5891 5889 5887 5886 5884 5882 5880 5880 5879 5878 5877 5876 5875 5875 5874 5874 5874 5873 5873 5873 5873 5873 5874 5874
5923 5923 5922 5921 5920 5919 5918 5916 5915 5913 5911 5910 5909 5907 5906 5904 5903 5902 5901 5899 5898 5896 5895 5894 5892 5890 5888 5887 5885 5883 5882 5880 5879 5878 5877 5876 5875 5874 5873 5873 5872 5872 5871 5871 5871 5871 5871 5872 5872
5924 5924 5924 5923 5921 5920 5920 5918 5916 5914 5912 5911 5909 5908 5906 5905 5903 5902 5900 5899 5897 5896 5895 5893 5892 5890 5888 5886 5884 5883 5881 5879 5878 5877 5876 5875 5874 5873 5872 5871 5871 5870 5870 5869 5869 5869 5869 5869 5869
5925 5926 5925 5923 5921 5920 5919 5918 5916 5914 5913 5911 5909 5908 5906 5905 5903 5902 5900 5899 5897 5896 5894 5893 5891 5889 5887 5885 5884 5882 5880 5878 5877 5876 5875 5874 5873 5872 5871 5870 5869 5868 5867 5867 5867 5867 5867 5867 5867
5927 5926 5925 5923 5922 5920 5919 5918 5916 5914 5913 5911 5909 5908 5906 5905 5903 5901 5900 5898 5897 5895 5894 5892 5891 5889 5887 5885 5883 5881 5879 5877 5876 5875 5874 5872 5871 5870 5869 5868 5867 5866 5865 5865 5865 5864 5864 5864 5864
5924 5925 5924 5923 5921 5920 5919 5918 5916 5914 5912 5911 5909 5908 5906 5905 5903 5901 5899 5898 5896 5895 5893 5891 5890 5888 5886 5884 5882 5880 5878 5876 5875 5874 5872 5871 5870 5869 5868 5867 5865 5864 5863 5862 5862 5861 5861 5861 5861
5923 5923 5923 5922 5920 5919 5918 5917 5915 5914 5912 5910 5909 5907 5905 5904 5902 5900 5899 5897 5895 5894 5892 5891 5889 5887 5885 5883 5881 5879 5877 5875 5873 5872 5871 5870 5868 5867 5866 5865 5863 5862 5861 5860 5859 5858 5858 5858 5857
5922 5922 5922 5921 5919 5918 5918 5917 5915 5913 5912 5910 5909 5907 5905 5903 5901 5899 5898 5896 5894 5893 5891 5889 5888 5886 5884 5882 5879 5877 5875 5873 5872 5870 5869 5868 5866 5865 5864 5862 5861 5860 5859 5857 5856 5855 5855 5854 5854
5921 5920 5920 5919 5919 5918 5918 5918 5915 5912 5911 5909 5908 5906 5904 5902 5900 5898 5896 5895 5893 5892 5890 5888 5886 5884 5882 5880 5878 5876 5874 5872 5870 5869 5867 5866 5864 5863 5862 5860 5859 5857 5856 5855 5853 5852 5851 5851 5850
5919 5918 5918 5918 5918 5918 5917 5916 5915 5912 5910 5908 5907 5905 5903 5901 5899 5897 5896 5894 5892 5890 5889 5887 5885 5883 5881 5878 5876 5874 5872 5870 5868 5866 5865 5863 5862 5860 5859 5857 5856 5854 5853 5851 5850 5849 5848 5847 5846
5916 5917 5916 5916 5917 5917 5916 5915 5914 5911 5909 5907 5905 5903 5901 5900 5898 5896 5895 5893 5891 5889 5887 5885 5883 5881 5879 5877 5874 5872 5870 5868 5866 5864 5863 5861 5859 5858 5856 5855 5853 5851 5850 5848 5846 5845 5843 5842 5841
5915 5916 5918 5917 5917 5916 5914 5912 5912 5908 5907 5905 5903 5901 5900 5898 5896 5895 5893 5891 5889 5887 5885 5883 5881 5879 5877 5874 5872 5870 5868 5866 5864 5862 5860 5858 5857 5855 5853 5852 5850 5848 5846 5845 5843 5841 5839 5838 5837
5912 5914 5916 5917 5916 5915 5911 5910 5909 5906 5904 5902 5901 5899 5898 5896 5894 5893 5891 5889 5887 5885 5883 5881 5879 5876 5874 5872 5870 5868 5865 5863 5861 5859 5858 5856 5854 5852 5850 5848 5847 5845 5843 5841 5839 5838 5836 5834 5833
5909 5910 5911 5912 5911 5911 5910 5907 5905 5903 5902 5900 5898 5897 5895 5894 5892 5890 5889 5887 5885 5882 5880 5878 5876 5874 5872 5869 5867 5865 5863 5861 5859 5857 5855 5853 5851 5849 5847 5845 5843 5841 5839 5837 5836 5834 5832 5831 5829
5906 5907 5908 5909 5908 5909 5907 5905 5904 5900 5899 5897 5896 5895 5893 5891 5890 5888 5886 5884 5882 5880 5878 5876 5873 5871 5869 5867 5864 5862 5860 5858 5856 5854 5852 5850 5848 5846 5844 5842 5840 5838 5836 5834 5832 5830 5828 5827 5825
5902 5903 5903 5904 5904 5905 5905 5905 5900 5898 5896 5895 5894 5892 5890 5889 5887 5885 5883 5882 5880 5878 5875 5873 5871 5868 5866 5863 5861 5859 5857 5854 5852 5850 5848 5846 5844 5842 5840 5838 5836 5834 5832 5830 5828 5826 5824 5823 5821
5898 5899 5900 5901 5900 5899 5900 5902 5896 5895 5893 5892 5891 5889 5888 5886 5884 5882 5881 5879 5877 5875 5872 5870 5868 5865 5863 5860 5858 5855 5853 5851 5849 5847 5844 5842 5840 5838 5836 5833 5831 5829 5827 5825 5823 5821 5819 5818 5816